GFSFLT1_500_spd_231.txt.gz
Wind_Speed
30 30 30 30 29 27 27 26 26 25 24 24 25 26 25 25 25 24 24 24 24 23 23 23 22 22 20 19 19 19 20 20 20
33 32 32 34 33 33 31 31 31 30 29 29 29 30 30 29 29 29 30 29 28 27 27 26 25 24 23 22 21 21 20 20 19
33 34 33 30 33 36 34 36 35 35 34 34 34 33 34 34 34 34 34 33 33 32 31 29 28 27 26 25 24 22 22 21 21
36 35 35 36 39 34 34 40 38 39 38 38 36 36 37 38 38 37 36 36 37 36 35 34 33 30 29 27 26 25 24 23 23
37 37 38 40 40 38 36 38 37 41 39 40 38 37 37 40 40 40 39 39 40 41 39 38 35 33 31 30 27 27 26 25 24
43 42 42 42 41 41 40 40 39 40 40 42 42 39 33 40 44 44 43 42 43 43 41 39 37 35 34 33 30 28 28 27 26
52 51 50 50 49 47 45 44 43 42 41 42 42 44 47 45 37 32 43 46 42 41 40 40 38 37 36 35 32 30 29 29 28
57 56 56 57 56 55 54 52 50 49 47 45 45 43 43 45 46 46 36 31 33 42 46 42 38 38 36 36 33 31 30 30 30
65 63 62 62 61 60 60 59 58 56 55 54 52 50 48 45 39 39 43 43 37 34 30 42 38 39 38 36 36 32 31 30 30
72 72 71 68 66 68 66 64 61 61 60 60 57 56 54 52 49 45 48 36 38 40 38 32 34 34 34 31 30 31 31 30 31
76 76 75 76 74 71 71 70 67 65 65 65 63 60 59 57 54 50 49 43 46 42 33 32 34 33 36 33 29 30 31 32 33
84 83 80 79 82 83 79 76 74 72 70 68 68 66 64 62 59 55 51 51 48 47 34 38 36 36 39 36 31 31 32 35 36
88 90 89 87 85 84 84 83 82 79 76 74 72 70 67 68 68 61 57 51 50 49 46 44 42 38 40 39 35 36 38 39 42
91 94 95 95 94 93 93 92 89 87 85 81 79 78 75 72 69 68 64 62 55 53 48 47 48 44 43 44 42 38 40 35 34
99 99 100 99 100 99 97 99 100 98 95 91 88 85 82 78 74 72 68 66 63 59 56 50 51 51 47 47 44 42 40 36 37
97 98 99 102 104 105 102 101 101 99 98 97 96 92 88 85 83 79 75 72 69 66 61 58 52 55 56 52 46 45 41 38 42
90 90 92 95 99 102 104 108 108 107 106 104 102 98 95 94 88 85 82 78 75 71 68 63 59 60 60 59 53 49 45 46 39
57 60 64 69 75 84 91 96 104 109 107 110 109 105 100 97 96 93 89 86 83 77 74 69 65 62 63 64 61 48 40 47 35
48 48 50 52 54 56 63 72 80 90 102 103 109 110 110 106 100 98 95 93 89 87 79 75 72 67 67 67 70 61 61 57 52
42 43 44 45 48 49 51 52 54 59 71 75 81 96 109 110 107 103 99 98 95 89 85 80 77 74 71 73 75 66 63 56 49

GFSFLT1_500_spd_234.txt.gz
Wind_Speed
37 35 34 33 33 33 32 31 30 30 29 29 28 28 27 26 26 26 25 24 25 24 24 24 23 23 23 22 22 20 20 20 21
37 38 41 36 36 37 36 35 34 33 32 31 31 31 31 30 30 29 30 29 29 29 29 27 27 26 26 24 23 22 21 21 21
39 39 39 39 37 34 40 40 39 37 35 35 34 34 35 34 34 35 34 32 32 33 32 31 31 31 29 27 26 25 24 23 22
43 43 43 43 42 48 38 36 44 41 40 40 39 38 39 39 37 38 37 37 36 36 36 36 35 34 33 31 29 28 27 25 24
45 46 45 47 47 45 45 45 39 38 42 43 44 43 42 40 42 43 42 41 40 39 39 39 39 38 37 35 33 31 30 28 26
51 50 50 50 50 50 47 47 44 45 40 41 46 45 43 38 41 47 46 47 43 43 43 43 43 42 40 38 36 33 32 31 29
58 58 57 55 55 54 53 51 49 48 47 45 45 45 46 46 49 39 40 49 45 45 45 45 44 42 40 39 38 36 34 34 32
66 67 65 64 63 62 61 59 56 54 52 51 49 48 48 48 48 51 47 36 33 38 47 49 45 41 40 39 39 37 36 35 34
70 71 71 71 70 69 69 68 66 63 61 59 56 54 52 49 48 46 43 39 38 38 39 34 38 45 44 40 39 37 36 33 33
77 77 76 76 75 74 74 72 70 71 70 67 64 62 59 56 54 50 46 44 44 36 31 40 34 31 32 41 41 39 37 36 32
83 81 83 84 83 82 80 78 77 74 74 74 72 69 66 64 60 56 52 52 50 46 39 40 35 34 39 31 36 34 32 33 30
90 88 86 89 91 90 88 87 84 81 80 77 77 74 70 68 67 64 60 57 56 51 47 44 39 35 31 35 32 34 34 33 32
97 93 92 91 94 95 95 95 93 90 88 85 82 80 77 73 71 68 65 62 60 58 51 50 47 43 38 35 33 36 35 35 35
102 100 98 100 100 101 101 101 101 98 95 91 89 85 82 80 76 73 70 67 64 61 58 53 51 47 43 40 37 36 38 37 35
107 105 102 100 104 104 104 103 104 105 102 99 96 94 90 84 81 79 75 71 68 66 65 59 54 50 47 43 42 40 38 41 41
101 106 104 102 103 105 107 105 106 106 107 104 102 102 98 94 90 84 81 77 74 70 67 66 61 58 52 49 45 45 43 41 43
67 77 89 100 102 102 99 100 102 103 107 107 108 104 101 100 99 93 89 85 81 76 73 71 68 64 59 55 50 48 48 47 46
46 50 54 62 74 86 93 99 102 105 106 106 109 107 107 105 102 100 99 95 89 86 80 76 72 70 65 61 57 53 51 50 51
38 42 45 47 47 52 57 67 80 90 99 102 107 110 108 106 102 100 97 97 96 93 90 83 79 76 73 68 64 60 56 55 55
36 40 45 45 45 45 45 47 50 57 69 80 91 108 113 112 107 104 101 100 98 97 94 92 87 82 78 75 71 67 61 60 60

GFSFLT1_500_spd_237.txt.gz
Wind_Speed
39 37 37 43 37 36 36 35 36 36 36 34 33 32 32 32 31 30 29 29 28 27 26 26 25 24 24 23 23 22 22 21 20
42 41 42 43 40 41 37 39 39 37 39 37 36 35 34 34 33 32 31 31 30 30 29 28 28 27 27 26 26 24 23 22 22
44 46 45 44 43 44 42 44 42 43 41 42 40 38 37 37 36 35 34 33 33 32 32 31 31 30 29 28 27 25 24 23 23
49 48 49 47 46 46 46 46 43 44 46 46 44 42 41 40 38 37 37 36 36 35 35 35 34 33 32 30 29 28 26 25 25
54 53 52 52 51 50 51 51 54 51 42 47 48 46 45 44 41 41 41 40 41 40 39 38 37 37 36 34 33 31 29 28 28
59 58 58 56 55 54 55 55 55 55 50 48 49 47 48 48 46 44 44 44 45 44 44 42 42 41 40 38 36 34 33 32 30
65 64 64 62 59 59 59 59 59 57 52 48 50 48 48 50 50 50 42 46 48 46 50 46 45 43 42 42 39 38 37 35 34
73 71 71 70 69 66 65 64 63 62 58 54 50 53 57 50 52 51 50 38 45 47 52 49 48 45 43 41 40 40 38 38 36
79 79 78 77 77 75 73 71 70 67 66 63 59 56 55 56 56 50 55 58 45 40 37 51 51 48 45 45 42 39 42 42 39
86 84 82 82 81 81 79 77 76 75 73 72 69 65 62 60 57 56 55 58 57 48 43 40 41 43 48 54 51 47 43 41 40
92 89 86 84 87 85 83 81 81 80 79 78 77 75 72 69 66 62 59 58 55 53 46 40 41 40 42 38 39 41 45 46 42
96 97 94 93 91 90 92 88 87 87 85 83 82 81 79 76 74 71 67 63 61 58 53 48 49 40 37 35 35 35 31 37 38
100 100 99 97 96 97 97 96 95 94 93 91 88 85 84 82 79 77 75 71 66 64 60 54 54 48 41 40 33 31 35 33 36
100 104 103 102 101 101 97 102 102 99 99 98 95 93 90 87 86 83 79 76 72 69 66 62 56 54 47 44 42 40 39 36 35
67 86 102 107 108 103 101 101 102 105 103 104 104 101 98 94 91 88 84 80 76 73 69 66 63 58 55 51 47 44 44 37 36
51 57 66 84 110 109 111 108 107 105 103 106 109 109 105 102 98 95 92 87 83 79 75 71 67 63 58 56 51 49 46 45 41
46 46 51 56 67 88 107 110 113 110 107 107 110 110 111 108 106 102 96 92 90 85 80 78 73 68 65 60 55 51 50 49 46
44 43 41 44 52 63 68 85 102 110 109 111 111 113 112 111 112 110 105 98 94 90 87 83 81 75 70 66 64 59 55 53 51
41 42 42 38 38 44 52 56 62 77 102 104 110 112 115 113 115 112 112 110 103 99 95 89 86 82 79 73 68 66 63 59 56
37 38 40 41 39 37 40 44 48 53 61 71 83 101 108 110 112 113 115 113 107 105 102 98 93 86 83 81 78 72 67 66 62

GFSFLT1_500_spd_240.txt.gz
Wind_Speed
39 40 41 38 38 43 43 37 38 38 39 39 38 37 37 36 35 34 34 34 35 34 33 31 30 29 28 26 25 24 23 22 22
44 43 43 42 42 42 41 45 41 39 40 40 41 39 38 38 37 36 35 35 35 34 34 32 32 31 29 28 26 24 24 23 23
49 48 46 45 45 44 43 41 42 46 43 45 44 44 44 41 40 38 37 37 37 36 35 34 33 32 30 29 28 27 26 25 24
52 53 53 51 49 49 48 47 44 44 46 52 49 46 45 46 42 41 39 39 40 38 37 36 35 34 33 32 31 30 30 28 27
58 58 57 57 56 54 54 52 51 50 49 50 49 48 47 48 44 42 41 40 41 40 40 39 38 37 36 35 34 34 33 31 30
63 63 63 63 61 59 58 58 57 56 55 53 53 51 51 49 51 47 44 43 44 44 43 41 40 40 39 38 38 37 36 34 31
72 70 69 68 67 66 64 62 62 61 60 58 55 53 49 51 51 53 52 44 44 47 46 44 45 44 43 42 41 40 39 37 34
80 78 77 76 74 72 71 69 66 64 64 63 61 58 53 47 51 53 54 55 45 48 47 47 46 46 46 46 45 43 42 41 39
88 87 85 84 82 81 79 76 74 70 68 68 67 62 59 54 53 54 59 56 51 49 50 50 50 49 50 49 49 47 43 42 43
91 91 93 91 89 87 87 85 82 78 76 74 73 71 65 61 56 57 61 59 60 52 55 46 50 53 55 53 52 48 50 44 42
94 95 94 96 96 94 93 90 88 87 84 81 79 77 75 70 66 61 61 60 64 62 54 50 42 35 39 52 54 52 50 48 45
98 98 96 97 95 99 99 97 93 91 90 87 85 83 82 79 75 70 66 64 61 61 63 64 59 53 46 41 44 49 49 52 55
79 94 100 99 98 99 100 101 101 96 94 92 90 89 87 85 83 79 75 71 68 65 63 61 59 53 49 46 37 37 41 39 43
56 58 65 84 98 101 103 101 100 100 99 96 95 94 93 90 88 86 83 79 75 72 71 67 63 60 56 53 51 50 40 35 37
57 57 56 54 62 81 100 107 104 103 101 102 100 97 98 94 91 90 89 85 82 80 75 73 71 66 62 57 56 51 51 45 37
46 48 52 52 53 55 62 83 105 105 105 105 105 103 101 103 98 94 93 92 89 84 82 78 74 72 68 63 62 57 51 49 46
48 49 49 50 50 49 49 56 73 95 105 106 106 106 108 106 105 104 100 98 95 91 87 84 80 74 70 68 65 63 58 56 50
42 47 47 46 46 46 46 47 53 67 82 99 108 107 109 110 110 110 105 103 100 97 94 90 85 81 76 71 68 65 63 59 57
37 40 44 45 45 44 42 43 44 51 61 68 81 107 109 112 110 112 113 109 107 104 100 98 94 87 83 77 72 69 66 63 60
38 39 42 42 41 42 41 39 41 41 47 54 58 64 88 106 113 115 113 116 114 111 108 106 101 95 90 85 79 74 71 67 63

GFSFLT1_500_spd_246.txt.gz
Wind_Speed
46 46 44 44 44 42 41 40 36 32 44 44 47 46 45 45 44 42 41 42 42 41 42 42 42 41 41 40 39 38 36 35 34
52 52 51 49 47 47 46 44 44 49 42 34 45 50 49 47 47 45 42 42 42 41 42 43 44 44 43 42 41 40 38 37 35
60 59 57 55 55 52 51 50 50 48 46 47 49 42 52 50 49 46 44 43 43 41 39 43 44 45 44 44 43 42 40 39 37
68 66 64 62 60 59 58 57 55 55 54 48 46 49 45 44 51 50 47 43 42 42 42 41 43 44 44 44 44 43 42 40 38
77 75 74 70 67 65 65 63 62 59 58 55 54 49 45 49 44 52 48 47 47 46 45 45 43 44 45 45 45 45 43 41 39
81 81 82 80 76 73 71 70 68 66 64 61 58 57 54 52 45 48 53 50 47 52 48 48 47 45 46 47 46 46 45 43 40
88 87 86 86 86 83 79 77 74 72 69 67 64 61 59 57 52 53 55 53 54 46 53 49 49 48 47 48 48 47 47 45 42
94 92 90 91 92 91 89 84 82 79 76 73 71 67 64 61 60 59 58 52 50 56 46 54 50 49 49 50 50 50 48 47 44
92 93 95 91 92 95 94 93 89 86 83 80 76 74 71 68 64 63 63 58 57 52 57 49 48 48 50 51 51 52 49 50 47
50 67 80 87 95 95 97 97 97 93 90 87 84 80 77 74 71 68 65 63 62 56 55 60 41 51 50 54 54 53 52 50 49
58 53 49 63 78 91 100 97 100 100 97 94 91 87 83 81 78 74 70 67 65 62 58 58 57 39 52 56 61 58 55 53 52
58 60 58 50 55 71 84 100 102 102 102 100 97 95 91 87 84 81 78 73 69 67 65 62 64 73 54 40 49 62 58 54 55
54 54 58 57 50 50 65 78 92 105 103 104 102 100 98 94 91 87 84 80 75 72 70 68 67 69 73 76 51 59 64 36 61
48 51 51 56 57 52 48 55 72 85 101 107 104 104 102 100 98 94 91 87 81 77 75 73 72 70 72 74 73 51 44 64 61
44 46 48 52 56 52 51 48 56 71 82 96 108 104 104 103 102 100 96 93 89 85 81 80 77 74 74 73 74 74 63 46 55
41 44 46 50 51 52 52 50 48 58 69 80 92 105 106 105 103 102 102 98 95 93 89 85 82 79 76 76 75 73 74 76 64
43 44 43 45 46 49 51 48 42 45 55 64 72 83 99 107 104 104 103 103 100 98 96 92 89 86 83 80 78 76 73 67 76
44 44 39 40 45 45 48 45 41 40 47 52 62 67 74 86 103 106 107 104 103 101 99 99 96 92 89 86 84 81 75 69 67
44 46 38 36 36 40 42 43 38 38 44 49 54 59 64 64 77 99 107 107 104 102 102 101 100 98 96 93 88 85 82 77 73
42 45 36 33 31 34 38 40 38 35 36 42 46 50 54 62 63 72 93 105 107 107 103 103 102 102 101 99 95 91 88 84 80